Flag for Senegal Weather past 2 weeks in Touba, Senegal

Now
81 °F

Clear.


Feels Like: 86 °F
Forecast: 76 / 108 °F
Wind: No wind

Location: Kaolack Airport

Current Time: Jul 28, 2014 at 6:44:31 AM

Latest Report: Jul 28, 2014 at 6:00 AM


Visibility: 10 mi

Pressure: 29.89 "Hg

Humidity: 84%

Dew point: 75 °F

Location of ToubaLocation

Historic Weather in Touba — Graph

°F

Touba temperature yesterday

Maximum temperature yesterday: 104 °F (at 3:00 PM)
Minimum temperature yesterday: 81 °F (at 8:00 AM)
Average temperature yesterday: 90 °F

Past Weeks' High & Low Weather Summary

 TemperatureHumidityPressure
High104 °F (Jul 27, 3:00 PM)100% (Jul 17, 6:00 AM)30.09 "Hg (Jul 17, 6:00 AM)
Low73 °F (Jul 17, 6:00 AM)28% (Jul 27, 3:00 PM)29.83 "Hg (Jul 14, 4:00 PM)
Average86 °F73%29.96 "Hg
* Reported Jul 13 5:00 AM — Jul 28 5:00 AM, Touba, Weather by CustomWeather, © 2014

Note: Actual official high and low records may vary slightly from our data, if they occured in-between our weather recording intervals... More about our weather records

Advertising

Touba weather history for previous 24 hours

 ConditionsComfort  
Time TempWeatherWind HumidityBarometerVisibility
5:00 AM
Jul 28
81 °FClear.No wind94%29.86 "Hg10 mi
4:00 AM81 °FClear.5 mph94%29.86 "Hg10 mi
3:00 AM81 °FClear.12 mph94%29.86 "Hg10 mi
12:00 AM86 °FClear.9 mph70%29.89 "Hg10 mi
11:00 PM
Jul 27
88 °FClear.9 mph66%29.89 "Hg10 mi
10:00 PM88 °FClear.No wind70%29.89 "Hg10 mi
9:00 PM88 °FClear.9 mph75%29.86 "Hg10 mi
7:00 PM91 °FSunny.7 mph59%29.83 "Hg10 mi
6:00 PM99 °FSunny.9 mph44%29.86 "Hg10 mi
5:00 PM102 °FSunny.7 mph40%29.83 "Hg10 mi
4:00 PM102 °FSunny.9 mph40%29.83 "Hg10 mi
3:00 PM104 °FSunny.No wind28%29.89 "Hg10 mi
12:00 PM93 °FSunny.7 mph53%29.95 "Hg10 mi
11:00 AM90 °FSunny.7 mph59%29.98 "Hg10 mi
10:00 AM86 °FSunny.5 mph66%29.95 "Hg10 mi
9:00 AM82 °FSunny.7 mph79%29.95 "Hg10 mi
8:00 AM81 °FSunny.5 mph84%29.95 "Hg10 mi
6:00 AM82 °FClear.5 mph84%29.92 "Hg5 mi
Weather by CustomWeather, © 2014

See weather overviewHow to use our weather pages